User: anonymous   Login
Location: Caltech
(34.1382°N, 118.1253°W)
Time: 07:54:25
(UTC-08:00)
Language:

OAO 1 Rocket - Orbit

View from above orbital plane
View from above orbital plane
View from above satellite
View from above satellite

Ground track
Ground track

The orbit data is extracted from the following two-line orbital elements,

1 02144U 66031B   15058.74162275  .00000356  00000-0  11224-3 0  9997
2 02144 035.0419 174.7946 0009058 311.2665 048.7244 14.42345584566689
Epoch (UTC): 27 February 2015 17:47:56
Eccentricity: 0.0009058
inclination: 35.0419°
perigee height: 744 km
apogee height: 757 km
right ascension of ascending node: 174.7946°
argument of perigee: 311.2665°
revolutions per day: 14.42345584
mean anomaly at epoch: 48.7244°
orbit number at epoch: 56668

The dashed part of the orbit path shows where the satellite is in the earth's shadow,  

DLR